2023/02/24 00:00:00,12.0, 1.8
2023/02/24 00:10:00,12.0, 2.0
2023/02/24 00:20:00,11.9, 2.2
2023/02/24 00:30:00,11.9, 2.1
2023/02/24 00:40:00,11.9, 2.1
2023/02/24 00:50:00,11.9, 1.8
2023/02/24 01:00:00,11.9, 2.0
2023/02/24 01:10:00,11.9, 1.9
2023/02/24 01:20:00,11.9, 1.9
2023/02/24 01:30:00,11.9, 1.9
2023/02/24 01:40:00,11.9, 2.0
2023/02/24 01:50:00,11.8, 1.7
2023/02/24 02:00:00,11.8, 1.8
2023/02/24 02:10:00,11.8, 1.8
2023/02/24 02:20:00,11.9, 1.6
2023/02/24 02:30:00,11.8, 1.8
2023/02/24 02:40:00,11.8, 1.7
2023/02/24 02:50:00,11.8, 1.9
2023/02/24 03:00:00,11.8, 1.9
2023/02/24 03:10:00,11.8, 1.6
2023/02/24 03:20:00,11.8, 2.2
2023/02/24 03:30:00,11.8, 2.1
2023/02/24 03:40:00,11.8, 1.8
2023/02/24 03:50:00,11.8, 1.9
2023/02/24 04:00:00,11.8, 1.7
2023/02/24 04:10:00,11.8, 1.6
2023/02/24 04:20:00,11.8, 2.0
2023/02/24 04:30:00,11.7, 1.7
2023/02/24 04:40:00,11.8, 2.4
2023/02/24 04:50:00,11.7, 2.0
2023/02/24 05:00:00,11.7, 1.8
2023/02/24 05:10:00,11.6, 2.1
2023/02/24 05:20:00,11.6, 2.1
2023/02/24 05:30:00,11.5, 1.9
2023/02/24 05:40:00,11.6, 1.8
2023/02/24 05:50:00,11.6, 2.0
2023/02/24 06:00:00,11.6, 2.1
2023/02/24 06:10:00,11.7, 1.9
2023/02/24 06:20:00,11.6, 1.9
2023/02/24 06:30:00,11.6, 1.8
2023/02/24 06:40:00,11.5, 2.0
2023/02/24 06:50:00,11.6, 2.0
2023/02/24 07:00:00,11.4, 2.1
2023/02/24 07:10:00,11.4, 2.3
2023/02/24 07:20:00,11.5, 2.6
2023/02/24 07:30:00,11.5, 2.6
2023/02/24 07:40:00,11.5, 2.6
2023/02/24 07:50:00,11.4, 2.9
2023/02/24 08:00:00,11.5, 3.0
2023/02/24 08:10:00,11.5, 3.3
2023/02/24 08:20:00,11.6, 3.2
2023/02/24 08:30:00,11.8, 3.1
2023/02/24 08:40:00,11.7, 3.5
2023/02/24 08:50:00,11.8, 4.4
2023/02/24 09:00:00,11.6, 5.3
2023/02/24 09:10:00,11.3, 5.3
2023/02/24 09:20:00,11.4, 5.5
2023/02/24 09:30:00,11.4, 5.4
2023/02/24 09:40:00,11.1, 5.8
2023/02/24 09:50:00,11.3, 5.5
2023/02/24 10:00:00,11.3, 5.5
2023/02/24 10:10:00,11.1, 5.5
2023/02/24 10:20:00,11.0, 6.4
2023/02/24 10:30:00,11.3, 6.8
2023/02/24 10:40:00,11.2, 6.1
2023/02/24 10:50:00,11.0, 7.1
2023/02/24 11:00:00,10.9, 7.7
2023/02/24 11:10:00,10.9, 7.4
2023/02/24 11:20:00,10.6, 6.9
2023/02/24 11:30:00,10.4, 6.7
2023/02/24 11:40:00,10.3, 7.5
2023/02/24 11:50:00,10.6, 8.6
2023/02/24 12:00:00,10.3, 8.5
2023/02/24 12:10:00, 9.8, 8.4
2023/02/24 12:20:00, 9.7, 8.0
2023/02/24 12:30:00, 9.7, 8.1
2023/02/24 12:40:00, 9.5, 7.6
2023/02/24 12:50:00, 9.5, 8.0
2023/02/24 13:00:00, 9.1, 7.1
2023/02/24 13:10:00, 8.5, 7.8
2023/02/24 13:20:00, 7.6, 8.5
2023/02/24 13:30:00, 7.7, 7.8
2023/02/24 13:40:00, 7.2, 7.1
2023/02/24 13:50:00, 7.1, 6.7
2023/02/24 14:00:00, 7.2, 6.7
2023/02/24 14:10:00, 7.2, 6.8
2023/02/24 14:20:00, 7.2, 6.7
2023/02/24 14:30:00, 7.1, 6.9
2023/02/24 14:40:00, 7.4, 7.1
2023/02/24 14:50:00, 6.5, 7.5
2023/02/24 15:00:00, 6.1, 7.2
2023/02/24 15:10:00, 5.9, 7.1
2023/02/24 15:20:00, 5.4, 7.1
2023/02/24 15:30:00, 5.2, 6.8
2023/02/24 15:40:00, 5.4, 6.3
2023/02/24 15:50:00, 5.2, 6.1
2023/02/24 16:00:00, 5.4, 6.0
2023/02/24 16:10:00, 5.4, 5.9
2023/02/24 16:20:00, 5.5, 6.0
2023/02/24 16:30:00, 5.6, 6.0
2023/02/24 16:40:00, 5.4, 6.2
2023/02/24 16:50:00, 5.2, 6.0
2023/02/24 17:00:00, 4.8, 5.8
2023/02/24 17:10:00, 4.6, 5.7
2023/02/24 17:20:00, 4.6, 5.6
2023/02/24 17:30:00, 4.6, 5.4
2023/02/24 17:40:00, 4.7, 5.1
2023/02/24 17:50:00, 4.7, 4.7
2023/02/24 18:00:00, 4.7, 3.8
2023/02/24 18:10:00, 4.8, 3.4
2023/02/24 18:20:00, 4.7, 3.3
2023/02/24 18:30:00, 4.8, 3.5
2023/02/24 18:40:00, 4.8, 3.5
2023/02/24 18:50:00, 4.7, 4.1
2023/02/24 19:00:00, 5.0, 4.0
2023/02/24 19:10:00, 4.9, 3.5
2023/02/24 19:20:00, 4.8, 3.1
2023/02/24 19:30:00, 4.8, 3.8
2023/02/24 19:40:00, 4.9, 3.8
2023/02/24 19:50:00, 4.9, 3.9
2023/02/24 20:00:00, 4.8, 3.9
2023/02/24 20:10:00, 4.6, 3.9
2023/02/24 20:20:00, 4.5, 3.9
2023/02/24 20:30:00, 4.0, 3.9
2023/02/24 20:40:00, 3.8, 3.8
2023/02/24 20:50:00, 3.9, 3.7
2023/02/24 21:00:00, 4.0, 3.5
2023/02/24 21:10:00, 4.2, 3.4
2023/02/24 21:20:00, 3.8, 3.7
2023/02/24 21:30:00, 3.6, 3.6
2023/02/24 21:40:00, 3.5, 3.2
2023/02/24 21:50:00, 3.6, 3.5
2023/02/24 22:00:00, 3.6, 3.1
2023/02/24 22:10:00, 3.4, 3.1
2023/02/24 22:20:00, 3.5, 3.0
2023/02/24 22:30:00, 3.4, 3.0
2023/02/24 22:40:00, 3.3, 3.2
2023/02/24 22:50:00, 3.2, 2.8
2023/02/24 23:00:00, 3.1, 2.5
2023/02/24 23:10:00, 3.1, 2.7
2023/02/24 23:20:00, 2.9, 2.7
2023/02/24 23:30:00, 2.9, 2.4
2023/02/24 23:40:00, 2.9, 2.5
2023/02/24 23:50:00, 2.8, 2.4
